Theta_e
307 308 308 308 309 308 308 309 310 315 322 321 320 319 320 322 323 322 321 320 319 318 317 316 315 314 314 319 319 318 316 315 314 314 314 315 316 315 315 315 317 317 316 315 315 315 316
307 307 308 308 308 308 308 309 310 312 317 322 320 319 320 321 322 322 321 320 319 317 317 316 315 314 318 318 316 317 316 315 315 315 315 314 315 315 316 318 318 317 317 317 317 317 316
306 306 307 308 308 308 307 307 309 311 314 322 321 320 319 320 322 322 321 320 319 317 316 315 314 314 317 316 315 316 316 316 316 316 316 316 316 316 316 317 316 317 318 317 319 319 319
305 307 307 307 307 308 306 306 308 309 311 319 322 320 318 320 321 322 321 320 318 317 316 315 315 314 316 314 315 317 316 316 316 316 316 316 316 316 317 316 316 317 317 317 319 320 319
306 307 308 307 307 308 307 305 307 309 310 314 322 320 319 319 320 322 321 319 318 317 315 315 315 316 320 317 317 315 316 316 316 316 316 316 316 315 316 317 316 317 314 318 318 319 319
307 307 307 308 308 308 307 305 307 308 308 310 320 321 319 319 320 322 320 318 317 316 315 316 317 315 315 317 317 316 316 316 315 314 315 315 315 317 315 315 312 317 320 318 320 321 320
309 308 309 308 308 308 308 306 306 309 310 311 314 322 320 319 319 321 319 316 314 315 316 316 316 315 316 315 318 318 318 315 314 314 315 315 317 317 316 315 313 318 319 318 317 318 321
307 308 308 308 308 308 308 307 306 306 308 309 312 321 320 319 319 320 318 314 314 315 319 316 316 316 315 316 317 318 320 318 315 314 316 321 319 318 318 318 319 318 319 320 319 319 323
306 307 308 308 308 308 308 307 307 306 308 309 311 321 320 320 319 318 316 315 314 317 318 319 317 316 316 316 316 316 317 319 319 316 317 319 321 321 320 320 321 320 321 321 321 322 323
307 308 308 308 308 308 308 308 306 306 307 309 311 319 320 319 318 317 316 315 317 317 314 315 321 319 317 317 318 315 318 320 322 320 323 322 321 323 323 322 321 322 321 322 325 327 329
308 309 308 308 308 308 308 308 307 306 306 308 310 317 319 319 317 316 316 315 315 313 311 313 317 318 317 318 315 315 318 320 322 323 324 325 325 325 324 325 324 325 325 326 326 326 326
307 309 309 308 308 307 307 308 308 306 307 309 310 316 319 318 316 316 315 315 315 312 313 313 318 321 320 318 315 314 316 319 319 320 320 320 319 322 324 324 323 323 325 325 324 325 330
303 307 307 307 306 307 306 308 307 305 310 310 310 315 318 318 317 315 315 315 316 311 313 314 319 319 320 320 318 318 315 320 318 322 322 320 320 320 320 321 322 324 325 330 331 331 332
304 305 306 306 306 307 307 308 307 305 305 308 311 315 318 318 315 315 316 317 317 315 313 320 321 319 320 319 318 319 314 317 318 316 321 321 322 319 319 320 323 325 326 330 334 333 330
304 305 305 305 305 306 307 307 308 305 305 306 311 314 317 317 315 315 319 318 315 314 313 314 323 321 323 320 319 320 320 316 315 316 319 323 323 321 320 320 321 325 327 325 329 327 329
304 305 306 305 305 305 306 306 307 306 306 306 311 315 317 317 315 316 319 317 316 314 313 312 325 328 326 325 326 320 323 323 323 315 317 326 328 327 327 323 323 323 324 329 327 332 334
300 305 305 305 305 305 305 305 307 306 306 308 313 318 316 318 316 318 319 317 315 314 316 312 314 321 329 328 328 323 325 325 324 326 316 318 328 329 326 328 329 326 327 327 327 326 328
296 297 301 304 305 305 305 305 307 306 305 306 311 318 311 318 321 317 317 315 313 314 315 318 324 319 322 328 329 329 328 328 323 324 328 319 324 328 329 324 325 326 327 326 329 329 324
294 295 296 299 303 305 305 304 305 304 305 307 310 304 305 310 317 316 312 316 314 315 315 318 322 324 321 327 330 330 329 325 321 322 327 327 331 335 333 329 326 329 327 326 324 324 326
297 295 295 296 299 303 306 305 305 304 305 308 305 312 304 304 306 312 312 315 316 314 316 319 318 322 324 326 327 329 329 326 323 321 321 324 330 333 334 327 327 326 326 326 328 328 324
297 297 296 296 297 300 306 305 305 305 306 306 306 305 307 309 311 313 313 313 316 318 315 317 320 321 324 325 327 328 326 324 324 322 321 323 328 328 329 324 324 326 324 324 324 322 324
296 297 297 297 297 298 301 308 306 306 308 307 303 306 307 309 311 314 312 314 316 316 316 317 318 319 322 324 324 326 326 322 322 323 323 320 320 319 321 324 322 324 323 321 322 322 321
295 296 297 297 297 298 299 301 307 308 308 301 301 304 309 310 311 313 312 313 316 316 310 316 319 320 320 320 317 316 318 318 319 321 321 319 318 317 324 319 318 321 319 318 318 318 321
296 295 296 297 297 297 298 301 303 303 306 302 303 304 307 309 311 310 310 312 315 315 313 312 315 319 314 310 310 310 312 313 318 319 317 315 314 316 321 319 323 321 317 317 318 317 316
296 296 295 296 296 297 296 296 301 302 303 304 303 302 302 307 310 310 311 312 313 314 313 312 313 311 309 309 309 311 310 310 313 317 317 316 316 317 320 320 318 317 315 315 319 318 311
296 295 295 296 295 296 296 294 295 302 302 302 303 305 303 306 307 309 311 312 312 313 309 310 309 309 309 307 309 314 314 317 316 317 315 315 316 317 317 319 319 314 311 311 312 316 307
295 295 295 296 296 295 296 295 292 297 301 300 300 303 304 303 305 306 306 309 306 305 307 308 309 310 307 307 313 314 315 313 315 315 317 315 313 316 316 316 312 310 308 308 314 313 306
295 295 295 295 295 294 293 295 292 294 298 298 298 300 303 305 306 307 307 306 306 306 307 307 307 305 306 311 313 312 313 313 313 312 313 314 314 315 315 316 316 308 307 309 305 305 304
294 295 295 295 295 294 294 292 293 292 296 298 297 299 303 301 304 303 303 306 305 306 305 306 307 305 306 309 309 309 311 310 310 314 311 315 311 311 312 312 305 307 304 301 301 300 299
Wind_Speed
41 39 40 39 36 34 34 35 41 23 46 47 45 41 39 35 33 29 25 21 17 14 11 9 8 10 6 2 8 7 3 3 3 3 1 1 2 1 2 3 6 5 5 7 9 8 6
44 43 41 41 40 37 34 33 40 34 26 49 44 41 39 36 33 30 26 21 17 14 10 7 6 6 1 4 5 7 4 3 4 3 2 2 2 3 4 2 1 5 7 8 7 7 7
48 48 45 43 42 40 36 36 37 43 25 49 45 44 40 37 33 30 26 22 18 14 10 6 4 3 1 13 3 5 8 9 6 4 0 3 3 1 1 4 5 6 7 8 7 3 9
51 50 48 46 44 44 43 39 38 44 38 34 47 45 42 38 34 30 26 21 17 13 9 5 4 1 7 13 12 18 18 17 13 9 4 1 3 1 1 2 7 5 2 4 3 3 5
52 50 50 49 46 46 44 42 40 43 46 19 48 44 45 39 34 30 25 20 15 11 7 5 2 3 8 6 10 26 22 8 5 15 9 8 0 3 3 2 4 4 4 5 10 7 5
50 51 51 50 49 47 46 42 41 38 43 47 39 45 43 41 35 30 25 20 13 7 6 2 4 2 7 5 7 7 12 18 4 2 1 3 2 3 2 4 7 6 5 5 6 5 3
45 49 47 49 50 47 47 43 39 35 35 41 24 46 43 41 37 34 31 18 6 2 7 9 9 6 2 5 3 5 9 10 4 3 7 6 4 9 21 15 8 3 3 7 7 12 5
41 41 44 48 49 47 49 44 40 39 41 45 28 48 43 41 40 40 39 7 9 3 5 21 11 14 17 1 4 4 12 6 6 7 5 2 13 19 4 9 11 11 12 16 10 13 7
39 42 45 48 49 49 48 45 43 38 38 36 47 49 44 42 41 43 35 17 15 2 2 5 11 13 11 10 7 7 10 5 5 9 14 12 8 15 13 14 13 16 16 14 13 6 5
36 44 46 48 48 48 46 45 44 39 35 34 44 47 48 45 42 36 29 31 11 7 3 6 8 9 12 8 9 17 18 8 6 14 7 12 13 10 14 14 14 16 11 14 8 1 8
30 40 45 47 46 47 47 45 43 37 33 34 39 43 55 58 27 27 28 39 11 4 2 7 9 8 10 17 11 14 26 9 10 10 7 9 8 15 18 19 18 10 7 9 6 4 1
17 22 38 41 42 44 44 43 43 32 31 35 35 44 58 50 28 38 36 34 8 5 10 5 9 10 13 12 4 6 18 4 5 5 13 9 3 6 6 7 13 3 4 2 2 3 10
22 16 29 35 39 40 42 40 39 33 24 39 37 39 61 48 20 47 39 15 5 5 3 7 7 11 13 11 11 7 20 20 13 8 20 15 25 13 2 4 6 6 5 2 3 1 10
17 11 27 33 36 37 39 39 39 31 28 29 42 44 57 42 49 53 30 11 5 19 16 3 11 18 13 9 10 10 19 19 21 6 2 12 9 20 18 22 12 12 11 6 7 6 4
21 16 25 27 31 33 35 38 37 35 33 35 31 34 32 36 59 51 17 18 16 9 22 4 14 13 7 7 8 12 13 19 21 23 11 7 7 4 7 18 21 8 14 11 4 3 0
6 12 19 24 28 31 33 35 37 36 34 25 30 19 19 40 56 37 19 19 17 6 14 21 13 10 15 14 10 15 15 12 12 26 17 4 9 6 4 6 12 19 8 6 4 7 12
47 11 12 21 26 30 33 35 35 34 33 27 19 6 20 47 44 20 20 31 10 0 6 20 22 6 7 12 14 12 11 9 22 17 26 16 5 6 3 10 15 7 13 6 7 5 5
40 39 29 8 23 29 33 35 36 34 32 27 3 5 22 47 11 17 18 37 18 17 4 5 2 10 11 11 19 16 17 9 4 11 22 18 7 18 21 8 10 19 18 18 9 6 5
34 34 34 30 19 21 34 37 36 34 36 19 4 3 2 12 13 12 1 15 19 17 20 8 4 4 7 8 5 11 10 6 6 4 10 14 7 10 8 14 12 15 17 17 5 4 10
27 31 32 32 34 18 31 41 38 36 37 21 4 4 1 0 4 14 10 14 12 20 11 6 13 9 2 8 3 5 8 5 2 4 8 2 9 13 16 6 9 7 14 14 13 7 6
29 27 27 30 32 37 3 47 41 39 39 27 3 1 4 5 9 14 17 17 21 9 11 11 9 22 11 6 15 8 3 4 4 8 3 5 7 8 11 3 7 7 9 6 4 4 7
31 30 28 29 33 38 39 23 36 42 40 21 5 4 2 6 13 21 18 16 26 8 15 7 16 18 17 12 9 8 12 5 4 5 6 1 5 3 2 5 1 6 5 6 7 8 8
29 29 29 29 32 35 38 40 18 34 40 3 2 2 4 9 10 13 10 13 20 15 2 13 17 7 22 25 2 3 4 6 8 5 1 6 5 4 5 7 2 5 13 7 5 6 5
29 29 29 30 31 32 35 35 33 17 18 9 2 3 3 4 11 14 15 15 19 22 12 5 4 16 5 13 7 4 8 6 6 6 8 5 7 3 2 7 6 4 7 12 10 9 9
27 29 29 29 30 29 30 32 30 29 22 19 6 3 2 4 8 10 14 22 13 13 11 9 5 6 14 5 3 3 2 2 5 7 10 9 4 3 3 4 2 5 8 7 9 7 3
29 27 28 28 26 27 28 28 29 21 24 24 15 8 3 5 6 4 13 15 7 9 5 5 4 14 4 3 3 5 6 5 6 6 8 4 8 4 3 4 8 6 4 7 7 4 7
28 28 27 26 27 25 25 26 25 24 15 13 12 4 2 3 5 5 4 10 6 5 4 4 7 7 3 4 3 4 4 5 8 11 7 4 3 8 4 3 5 4 6 4 8 7 13
26 26 26 26 25 24 23 22 22 23 16 12 11 13 3 2 3 4 3 4 4 4 4 5 4 1 2 5 3 4 4 7 4 8 10 10 7 4 4 6 10 8 4 8 5 9 8
27 25 24 23 22 21 21 20 20 19 20 10 7 19 11 4 3 18 16 10 5 2 4 7 2 4 4 3 2 2 2 2 5 4 4 5 6 7 8 5 3 7 4 6 6 7 6
Wind_Direction
272 266 262 255 248 253 256 264 265 273 235 235 232 221 224 227 227 224 224 228 230 238 244 268 300 328 347 342 253 284 225 199 233 247 260 33 353 178 252 284 328 225 277 298 282 295 262
269 264 258 254 245 242 250 254 253 271 271 230 230 220 220 222 226 220 221 222 228 233 244 258 295 327 58 257 249 255 194 215 236 239 213 186 251 263 266 272 193 314 298 280 284 278 254
269 261 254 250 245 239 244 247 250 253 285 224 227 222 214 218 222 219 217 217 220 230 238 256 287 337 243 233 223 176 254 276 250 245 238 91 33 341 128 303 342 303 307 313 291 272 278
264 258 250 244 242 236 238 244 244 249 258 231 225 222 216 212 217 214 213 212 214 220 232 240 269 297 245 261 267 263 253 256 240 249 247 296 358 213 148 315 358 321 275 298 234 325 282
260 253 249 239 236 232 229 240 239 241 243 273 221 219 217 208 209 208 204 203 204 209 214 229 243 168 264 288 240 243 246 224 218 237 242 268 216 141 11 88 4 272 253 230 308 202 235
256 251 247 235 229 227 226 231 235 236 241 244 220 216 215 209 200 197 190 184 177 181 198 208 256 9 255 235 213 234 218 212 211 112 210 175 84 114 210 146 225 203 213 232 232 258 310
255 250 240 230 226 223 221 222 229 227 232 240 250 213 210 206 197 184 165 135 107 255 228 197 189 210 269 215 142 181 157 152 141 127 189 181 143 202 215 203 228 247 245 255 256 271 300
256 248 232 225 220 219 217 215 226 227 230 234 245 207 204 201 192 179 168 175 178 151 239 230 236 237 270 4 354 230 165 147 152 194 169 154 223 224 219 214 221 244 259 264 278 263 256
257 245 231 223 218 217 214 215 221 225 227 228 229 201 198 194 185 174 176 178 182 88 233 220 207 223 233 182 206 237 164 172 188 187 190 204 203 210 206 225 227 232 228 248 246 281 266
266 245 225 219 214 211 211 210 221 220 222 223 230 202 192 185 174 179 181 171 109 65 267 256 200 229 190 178 250 192 193 172 216 200 211 233 234 228 207 229 207 243 219 243 261 312 272
290 231 213 210 207 205 207 207 214 218 225 224 217 202 186 183 167 180 176 183 178 56 261 206 185 180 173 177 132 204 188 206 194 187 172 224 185 214 222 217 213 233 208 221 199 221 262
318 198 198 201 200 204 207 207 210 222 222 223 220 203 184 175 169 173 176 181 147 78 237 245 148 163 151 198 246 126 180 187 193 221 256 227 299 186 203 256 219 242 193 180 84 123 262
320 215 195 195 200 201 207 206 215 218 212 223 220 201 182 173 164 161 158 141 126 176 191 196 169 158 157 172 207 166 180 193 181 180 232 243 248 247 271 323 263 190 127 267 301 191 257
254 263 201 197 201 201 205 204 209 220 221 220 212 194 182 172 156 158 156 161 176 218 206 149 159 159 182 144 206 194 170 199 213 222 148 198 256 210 211 218 209 212 190 180 209 213 236
185 211 205 203 205 207 205 208 205 209 222 226 210 205 191 167 157 159 157 179 207 183 185 243 145 173 203 182 159 184 185 199 205 203 191 179 252 181 181 211 196 206 214 196 271 117 321
66 197 212 212 207 208 212 213 209 209 216 210 197 192 190 169 158 161 172 201 210 136 162 201 188 179 184 185 166 189 181 211 210 202 209 223 276 189 218 184 222 213 158 170 193 195 231
27 11 246 231 221 216 213 217 212 211 209 193 198 206 175 179 165 173 189 210 182 243 117 195 230 200 195 184 192 194 198 217 200 193 200 223 231 219 144 206 199 189 214 199 181 170 166
20 19 29 318 237 226 221 215 211 209 198 193 251 190 164 164 187 185 188 205 221 206 272 223 0 233 219 182 199 194 209 172 141 192 202 203 226 249 238 268 208 201 206 195 199 207 185
25 18 15 13 27 238 226 218 213 208 198 174 175 169 186 205 187 178 116 195 215 208 216 196 231 253 213 191 201 225 202 126 141 129 197 191 214 246 252 250 237 213 206 195 118 126 204
31 26 16 9 10 2 223 212 210 206 198 188 140 126 10 179 125 166 159 190 196 202 205 187 214 249 173 200 217 168 230 190 131 106 117 167 195 222 232 280 167 195 192 200 206 193 176
25 31 23 14 9 11 12 201 202 203 197 188 158 165 219 158 161 174 183 167 191 169 200 194 199 212 217 216 210 203 150 101 158 161 102 143 201 235 230 30 339 175 144 141 155 144 190
20 26 27 22 19 18 30 178 203 203 191 196 132 184 71 133 155 171 180 192 190 186 173 210 210 205 214 220 209 190 185 162 164 237 144 253 158 121 265 185 25 268 213 193 175 187 207
20 22 26 26 27 26 24 51 162 192 183 120 169 198 120 151 159 163 193 187 197 173 260 206 206 177 211 230 217 142 124 133 150 172 55 144 132 149 197 136 101 273 234 232 208 185 166
15 18 24 28 31 30 32 43 55 86 191 117 131 112 101 153 176 182 176 193 182 190 171 157 174 205 130 115 87 25 68 70 165 166 146 184 149 172 168 134 202 216 248 211 218 228 211
13 13 17 24 26 32 34 40 47 55 70 83 74 89 135 122 180 182 183 203 205 186 173 167 147 156 158 93 103 106 37 52 233 212 189 164 150 163 193 196 74 240 194 174 173 201 168
4 10 13 13 24 25 30 42 48 64 62 58 44 66 64 114 198 153 180 187 171 171 131 132 92 152 94 105 151 177 177 159 185 185 201 167 175 187 181 188 193 213 177 147 101 233 179
359 1 6 9 9 19 27 31 43 54 78 74 50 78 131 120 202 119 155 167 125 124 130 131 139 174 119 179 157 165 188 173 169 171 171 161 162 209 181 216 283 206 162 119 166 225 157
357 355 356 360 2 7 16 28 36 39 56 64 54 36 132 80 93 122 118 130 120 142 140 142 100 127 133 193 159 179 165 199 157 171 173 171 163 191 176 203 243 171 155 176 173 130 145
351 349 350 350 355 358 4 13 26 39 45 58 23 36 78 85 76 91 75 109 110 102 112 163 109 152 171 149 153 169 158 166 146 199 170 192 183 172 189 204 208 168 120 111 123 132 150